FENGYUN 1C DEB

Satellite information

Favourite Embed

Satellite Type and Status

DEBRISIN ORBIT

Key statistics

Satellite FENGYUN 1C DEB at a glance.

Uptime

9616

Days in orbit

Revolutions

≈ 15.2

Per day

Orbit

SSO

Sun Synchronous Orbit

Inclination

98.8

Latest

Satellite identification and parameters

Extended collection of information and parameters for FENGYUN 1C DEB.

Object identification

Identified? True

Debris? True

Object name: FENGYUN 1C DEB

International designator: 1999-025AUA

Object number (NORAD): 30764

Object ID (CCSDS): 30764

Country: PEOPLES REPUBLIC OF CHINA (PRC)

Current information (Y/N): Y

RCS size: SMALL

Orbital parameters

Period: 94.738 minutes

Inclination: 98.7645 deg

SMA: 6884.018 km

Apoapsis: 569.878 km

Periapsis: 441.888 km

RAAN: 199.9189 deg

Eccentricy: 0.00929617

Argument of periapsis: 151.6927 deg

Mean anomaly: 208.9401 deg

Mean motion: 15.19986552 rev/day

Mean motion (dot): 0.00047942 rev/day2

B* drag term: 0.001975596 1/REarth

Two-line elements (TLE)

Creation date: Sept. 4, 2025, 4:29 a.m.

Reference frame: TEME

Reference center: EARTH

Epoch: Sept. 3, 2025, 7:08 a.m. UTC

TLE line 0: 0 FENGYUN 1C DEB

TLE line 1: 1 30764U 99025AUA 25246.29742741 .00047942 00000-0 19756-2 0 9996

TLE line 2: 2 30764 98.7645 199.9189 0092962 151.6927 208.9401 15.19986552996937

Live tracking on map

Real-time ground track for satellite FENGYUN 1C DEB.

In-orbit conjunctions

A list of the most updated potential collisions computed for object FENGYUN 1C DEB.

Target Orbit TCA Probability of collision Miss distance Type
COSMOS 2242 LEO 2025-04-20 01:20:50 0.0001401641 456.0 (m) PAYLOAD
CZ-6A DEB SSO 2024-11-13 06:11:50 0.0001887793 544.0 (m) DEBRIS

Associated space launch

Chinese polar orbiting meteorological satellite

FENGYUN 1C DEB was lifted into orbit during the mission ‘Long March 4B | Feng Yun 1C’, on board a Long March 4B space rocket.

The launch took place on May 10, 1999, 1:33 a.m. from Launch Complex 7.

For more information about the launch, click the button.

Launch to space Long March 4B | Feng Yun 1C
Long March 4B | Feng Yun 1C

Agency: N/A

Status: Launch Successful

Launch date: May 10, 1999, 1:33 a.m. UTC

Rocket: Long March 4B

Launch pad: Launch Complex 7

Location: Taiyuan Satellite Launch Center, People's Republic of China

...

Latest news about this satellite

There are no fresh news available about this satellite. Check back as we update our databases every day.


Newsletter sign-up

Weekly statistics, charts and insights to help you stay on top of the space industry.